Home > Weather > Crailsheim > Past weeks

Flag for Germany Weather for the Past 2 Weeks in Crailsheim, Baden-Württemberg, Germany

Now
50 °F

Cool.


Feels Like: 47 °F
Forecast: 45 / 69 °F
Wind: 7 mph from East

Location: Niederstetten

Current Time: May 6, 2016 at 12:13:30 AM

Latest Report: May 5, 2016 at 11:20 PM


Visibility: N/A

Pressure: 30.12 "Hg

Humidity: 76%

Dew Point: 43 °F

Location of CrailsheimLocation

Historic Weather in Crailsheim — Graph

°F

Crailsheim Temperature Yesterday

Maximum temperature yesterday: 63 °F (at 5:20 PM)
Minimum temperature yesterday: 37 °F (at 5:20 AM)
Average temperature yesterday: 50 °F

High & Low Weather Summary for the Past Weeks

 TemperatureHumidityPressure
High63 °F (Apr 21, 3:20 PM)100% (Apr 26, 7:20 AM)30.36 "Hg (Apr 26, 7:20 AM)
Low30 °F (Apr 24, 6:20 AM)30% (May 4, 6:20 PM)29.50 "Hg (Apr 26, 5:20 AM)
Average44 °F70%29.99 "Hg
* Reported Apr 20 10:20 PM — May 5 10:20 PM, Crailsheim, Weather by CustomWeather, © 2016

Note: Actual official high and low records may vary slightly from our data, if they occured in-between our weather recording intervals... More about our weather records

Advertising

Crailsheim Weather History for the Previous 24 Hours

Scroll right to see more
 ConditionsComfort  
Time TempWeatherWind HumidityBarometerVisibility
10:20 PM
Thu, May 5
50 °FCool.8 mph76%30.12 "HgN/A
9:20 PM52 °FCool.8 mph72%30.12 "HgN/A
8:20 PM55 °FCool.9 mph63%30.12 "HgN/A
7:20 PM59 °FRefreshingly cool.13 mph55%30.12 "HgN/A
6:20 PM61 °FPassing clouds.16 mph52%30.15 "HgN/A
5:20 PM63 °FPassing clouds.15 mph49%30.15 "HgN/A
4:20 PM59 °FPassing clouds.15 mph55%30.18 "HgN/A
3:20 PM59 °FPassing clouds.16 mph55%30.18 "HgN/A
2:20 PM61 °FPassing clouds.16 mph55%30.21 "HgN/A
1:20 PM57 °FScattered clouds.14 mph59%30.24 "HgN/A
12:20 PM55 °FScattered clouds.18 mph59%30.24 "HgN/A
11:20 AM54 °FPassing clouds.14 mph63%30.27 "HgN/A
10:20 AM52 °FPassing clouds.13 mph72%30.27 "HgN/A
9:20 AM48 °FCool.13 mph71%30.27 "HgN/A
8:20 AM45 °FQuite cool.12 mph76%30.30 "HgN/A
7:20 AM41 °FQuite cool.3 mph81%30.30 "HgN/A
6:20 AM37 °FChilly.3 mph87%30.30 "HgN/A
5:20 AM37 °FChilly.3 mph81%30.30 "HgN/A
4:20 AM39 °FChilly.3 mph81%30.30 "HgN/A
3:20 AM39 °FChilly.6 mph81%30.30 "HgN/A
2:20 AM39 °FPassing clouds.8 mph75%30.30 "HgN/A
1:20 AM39 °FPassing clouds.8 mph70%30.33 "HgN/A
12:20 AM41 °FPassing clouds.7 mph66%30.33 "HgN/A
Weather by CustomWeather, © 2016

See weather overviewHow to use our weather pages